Regional Weather Roundup
Issued by NWS San Diego, CA

Home | Current Version | Previous Version | Text Only | Print | Product List | Glossary On
Versions: 1 2 3 4 5 6 7 8 9 10 11 12 13 14 15 16 17 18 19 20 21 22 23 24 25 26 27 28 29 30 31 32 33 34 35 36 37 38 39 40 41 42 43 44 45 46 47 48 49 50
000
ASUS46 KSGX 300211
RWRSGX

SAN DIEGO HOURLY WEATHER ROUNDUP
NATIONAL WEATHER SERVICE SAN DIEGO CA
700 PM PDT SUN MAR 29 2015

NOTE: "FAIR" INDICATES FEW OR NO CLOUDS BELOW 12,000 FEET WITH NO
SIGNIFICANT WEATHER AND/OR OBSTRUCTIONS TO VISIBILITY.

CAZ042-043-060-061-PZZ750-775-300300-

GREATER SAN DIEGO AREA

CITY           SKY/WX    TMP DP  RH WIND       PRES   REMARKS
LINDBERGH FLD  MOCLDY    66  57  72 NW3       30.00S
POINT LOMA       N/A     64  57  78 W6          N/A
CHULA VISTA      N/A     65  61  85 W3        29.93S
IMPERIAL BEACH MOCLDY    65  59  81 W5        30.00S
BROWN FIELD    MOCLDY    64  57  78 NW5       29.99F
MIRAMAR MCAS   MOCLDY    67  56  67 W5        29.99S
MONTGOMERY FLD MOCLDY    65  58  78 SW3       29.99S

$$

NORTH SAN DIEGO COUNTY

CITY           SKY/WX    TMP DP  RH WIND       PRES   REMARKS
CAMP PENDLETON PTCLDY    65  57  75 SW3       29.99R HAZE
OCEANSIDE AP   PTCLDY    64  58  80 W5        29.98S
VISTA            N/A     69  58  69 CALM      29.97R
CARLSBAD       PTCLDY    65  58  78 W6        29.98S
FALLBROOK        N/A     69  58  65 SW3       29.97R
SAN MARCOS       N/A     69  56  63 W7        29.97R
POWAY            N/A     71  55  56 W3        29.99S

$$

EAST SAN DIEGO COUNTY

CITY           SKY/WX    TMP DP  RH WIND       PRES   REMARKS
RAMONA         MOCLDY    69  45  41 W6        30.00S
SANTEE LAKES     N/A     69  55  59 SW8       29.98S
LA MESA          N/A     68  58  70 CALM      29.93R
DESCANSO N       N/A     67  43  42 CALM      29.88S
MT. LAGUNA OBS   N/A     58  39  49 CALM      29.75R
CAMPO            N/A     68  42  38 SW9       30.01S

$$

ORANGE COUNTY AND THE LOS ANGELES BASIN

CITY           SKY/WX    TMP DP  RH WIND       PRES   REMARKS
JOHN WAYNE AP  CLEAR     65  57  75 S9        29.98R
LAKE FOREST FR   N/A     73  50  45 CALM      29.88R
SANTA ANA        N/A     72  57  58 CALM      29.93R
HUNTINGTON BCH   N/A     65  60  84 SW3       29.99S
FULLERTON      CLEAR     70  54  56 S6        29.97R
LONG BEACH     CLEAR     71  56  58 NW8       29.97R
L.A. AP        PTCLDY    62  57  83 W7        29.99R
L.A. DOWNTOWN  CLEAR     69  54  58 CALM      29.97R

$$

THE INLAND EMPIRE

CITY           SKY/WX    TMP DP  RH WIND       PRES   REMARKS
CORONA         CLEAR     74  44  34 W9        29.96R
CHINO          PTCLDY    74  43  32 W10       29.97R
ONTARIO        CLEAR     76  44  32 W13       29.97R
SAN BERNARDINO PTCLDY    79  37  22 SW12      29.97R
RIVERSIDE AP   CLEAR     76  47  35 W9        29.97R
MORENO VALLEY    N/A     78  45  30 W6        29.95R
HORSETHIEF CYN   N/A     79  44  28 W3        29.92R
MENIFEE          N/A     77  48  35 S3        30.01R
HEMET EAST       N/A     76  25  15 CALM      29.97R
FRENCH VALLEY  FAIR      73  36  25 SW7       30.00R
TEMECULA         N/A     75  44  33 S1        29.94R

$$

SAN BERNARDINO AND RIVERSIDE COUNTY MOUNTAINS

CITY           SKY/WX    TMP DP  RH WIND       PRES   REMARKS
BIG BEAR AP    CLEAR     55  27  33 W5        30.24R

$$

SOUTHERN DESERT INCLUDING THE COACHELLA VALLEY

CITY           SKY/WX    TMP DP  RH WIND       PRES   REMARKS
PALM SPRINGS   CLEAR     91  23   8 E7        29.89R
THOUSAND PALMS   N/A     91  24   9 E3        29.86S
THERMAL        PTCLDY    86  34  15 SE7       29.83S
BLYTHE         MOCLDY    91  31  11 CALM      29.87S
IMPERIAL AP    PTCLDY    88  42  20 E5        29.85R
EL CENTRO NAS  MOCLDY    86  37  17 E6        29.85R
YUMA AZ        MOCLDY    92  33  12 SW5       29.86S
MEXICALI       MOCLDY    90  30  12 SE5       29.86S

$$

UPPER DESERT

CITY           SKY/WX    TMP DP  RH WIND       PRES   REMARKS
VICTORVILLE AP CLEAR     79  18  10 S14       30.01S
HESPERIA         N/A     76  37  25 W9        30.05S
PALMDALE       CLEAR     75  25  15 W16       30.01R
LANCASTER      CLEAR     75  34  22 W16       30.01R
DAGGETT        CLEAR     84  14   7 N12       29.92S
29 PALMS N     CLEAR     83  19   9 S9        30.01S
NEEDLES        PTCLDY    87  16   7 SE5       29.90S

$$

REGIONAL REPORTS

CITY           SKY/WX    TMP DP  RH WIND       PRES   REMARKS
SANTA BARBARA  PTCLDY    62  58  86 S5        29.96S
SANDBERG       CLEAR     65  41  41 NW9       30.14R
MT. WILSON       N/A     66  23  19 S6          N/A
LAS VEGAS NV   MOCLDY    86  17   8 SE3       29.93S
PHOENIX AZ     MOCLDY    92  17   6 NW8       29.91S
TIJUANA        MOCLDY    66  54  63 NW6       30.02R
ENSENADA NW      N/A     63  32  31 NW6       29.98S

$$

OFFSHORE ISLANDS

CITY           SKY/WX    TMP DP  RH WIND       PRES   REMARKS
CATALINA ARPT  CLEAR     69  34  27 SW5       30.02S
SAN NICOLAS IS CLEAR    N/A N/A N/A W5        29.99S

$$

MARINE AND OFFSHORE BUOY REPORTS

STATION/POSITION SKY/WX   TEMP    WIND        PRES    SWELL
                          AIR SEA DIR/SP/G            HT/PER/DIR
                          (F)     (DEG/KT/KT) (MB)    (FT/S/D)
TANNER BANKS               59 61  300/ 12/ 16 1015.6R   8/310/10
S CLEMENTE BASIN           62 65  270/ 12/ 14 1015.1F   7/190/17
SAN NICOLAS IS.               61                N/A     8/190/17
SO. S. ROSA ISLA           60 62  310/ 14/ 17 1014.8S   7/12
W. S. BARBARA CH           58 59  310/ 19/ 25 1014.2F   7/210/17
S. MONICA BASIN            63 66  250/  6/  8 1015.2R   5/200/16
S PEDRO CHANNEL               64                N/A     3/180/18
DANA POINT                    67                N/A     5/190/18
OCEANSIDE OFFSHR              68                N/A     5/200/17
TORREY PINES OTR              68                N/A     5/200/17
LA JOLLA 1                 64 67  270/  4/  5 1015.8R
MISSION BAY BUOY              68                N/A     5/190/17
SAN DIEGO BAY                 69              1016.0S
POINT LOMA SOUTH              67                N/A     5/190/17

$$



USA.gov is the U.S. government's official web portal to all federal, state and local government web resources and services.